Flag for Australia Weather past 2 weeks in Townsville, Queensland, Australia

Now
77 °F

Passing clouds.


Feels Like: 78 °F
Forecast: 64 / 75 °F
Wind: 16 mph from East

Location: Townsville Amo

Current Time: Jul 31, 2015 at 1:30:18 PM

Latest Report: Jul 31, 2015 at 1:00 PM


Visibility: N/A

Pressure: 30.09 "Hg

Humidity: 44%

Dew point: 54 °F

Location of TownsvilleLocation

Historic Weather in Townsville — Graph

°F

Townsville temperature yesterday

Maximum temperature yesterday: 79 °F (at 1:00 PM)
Minimum temperature yesterday: 55 °F (at 6:00 AM)
Average temperature yesterday: 69 °F

Past Weeks' High & Low Weather Summary

 TemperatureHumidityPressure
High81 °F (Jul 21, 1:00 PM)100% (Jul 25, 12:00 AM)30.27 "Hg (Jul 25, 12:00 AM)
Low46 °F (Jul 19, 4:00 AM)7% (Jul 17, 3:30 PM)29.98 "Hg (Jul 16, 2:00 PM)
Average70 °F65%30.13 "Hg
* Reported Jul 16 12:00 Noon — Jul 31 12:00 Noon, Townsville, Weather by CustomWeather, © 2015

Note: Actual official high and low records may vary slightly from our data, if they occured in-between our weather recording intervals... More about our weather records

Advertising

Townsville weather history for previous 24 hours

 ConditionsComfort  
Time TempWeatherWind HumidityBarometerVisibility
12:00 PM
Fri, Jul 31
77 °FPassing clouds.17 mph42%30.12 "HgN/A
11:30 AM79 °FPassing clouds.15 mph39%30.15 "HgN/A
11:00 AM77 °FPassing clouds.15 mph44%30.15 "HgN/A
10:30 AM75 °FPassing clouds.17 mph47%30.18 "HgN/A
10:00 AM75 °FPassing clouds.15 mph44%30.18 "HgN/A
9:30 AM73 °FPassing clouds.10 mph50%30.18 "HgN/A
9:00 AM72 °FPassing clouds.2 mph53%30.18 "HgN/A
8:30 AM70 °FPassing clouds.6 mph60%30.18 "HgN/A
8:00 AM66 °FPassing clouds.No wind68%30.15 "HgN/A
7:30 AM61 °FPassing clouds.No wind83%30.15 "HgN/A
7:00 AM59 °FPassing clouds.No wind82%30.15 "HgN/A
6:30 AM57 °FPassing clouds.No wind88%30.15 "HgN/A
6:00 AM59 °FPassing clouds.No wind88%30.12 "HgN/A
5:30 AM57 °FClear.No wind88%30.12 "HgN/A
5:00 AM59 °FClear.No wind82%30.12 "HgN/A
4:30 AM61 °FClear.No wind83%30.12 "HgN/A
4:00 AM61 °FClear.3 mph83%30.15 "HgN/A
3:30 AM61 °FClear.No wind83%30.15 "HgN/A
3:00 AM59 °FClear.No wind88%30.15 "HgN/A
2:30 AM59 °FClear.No wind88%30.15 "HgN/A
2:00 AM63 °FClear.No wind77%30.15 "HgN/A
1:30 AM63 °FClear.3 mph77%30.15 "HgN/A
1:00 AM63 °FClear.7 mph77%30.15 "HgN/A
12:30 AM66 °FClear.9 mph73%30.18 "HgN/A
12:00 AM68 °FClear.10 mph69%30.18 "HgN/A
11:30 PM
Thu, Jul 30
68 °FClear.10 mph69%30.18 "HgN/A
11:00 PM68 °FClear.9 mph69%30.18 "HgN/A
10:30 PM68 °FClear.9 mph69%30.15 "HgN/A
10:00 PM68 °FClear.9 mph69%30.15 "HgN/A
9:30 PM68 °FClear.7 mph73%30.15 "HgN/A
9:00 PM68 °FClear.7 mph73%30.15 "HgN/A
8:30 PM70 °FClear.7 mph69%30.15 "HgN/A
8:00 PM70 °FClear.13 mph69%30.15 "HgN/A
7:30 PM70 °FClear.15 mph69%30.12 "HgN/A
7:00 PM70 °FClear.15 mph69%30.12 "HgN/A
6:30 PM72 °FClear.15 mph61%30.12 "HgN/A
6:00 PM72 °FClear.13 mph61%30.12 "HgN/A
5:30 PM73 °FPassing clouds.16 mph53%30.09 "HgN/A
5:00 PM73 °FPassing clouds.20 mph57%30.09 "HgN/A
4:30 PM75 °FPassing clouds.17 mph50%30.09 "HgN/A
4:00 PM75 °FPassing clouds.18 mph50%30.09 "HgN/A
3:30 PM77 °FPassing clouds.21 mph47%30.09 "HgN/A
3:00 PM77 °FPassing clouds.20 mph44%30.09 "HgN/A
2:30 PM77 °FSunny.18 mph47%30.09 "HgN/A
1:30 PM77 °FPassing clouds.20 mph47%30.12 "HgN/A
1:00 PM79 °FPassing clouds.14 mph45%30.15 "HgN/A
Weather by CustomWeather, © 2015

See weather overviewHow to use our weather pages